Location: Newark
(51.5033°N, 0.1199°W)
Time: 04:38:16
(UTC+00:00)

PicSat - Pass Details

Date: 24 September 2019
Orbit: 486 x 499 km, 97.5° (Epoch: 17 October)

Event Time Altitude Azimuth Distance (km) Brightness Sun altitude
Exits shadow 21:36:36 16° 345° (NNW) 1,365 ? -31.6°
Drops below altitude 10° 21:37:27 10° 346° (NNW) 1,717 ? -31.7°
Sets 21:39:33 0° 347° (NNW) 2,607 ? -31.9°
